Location: Angel
(38.7209°N, 82.2693°W)
Time: 15:33:53
(UTC+00:00)

Hubble Space Telescope - Visible Passes

Search period start: 08 December 2022 00:00
Search period end: 18 December 2022 00:00
Orbit: 530 x 534 km, 28.5° (Epoch: 08 December)

Date Brightness Start Highest point End Pass type
(mag) Time Alt. Az. Time Alt. Az. Time Alt. Az.
08 Dec 3.2 11:26:46 10° SSW 11:29:25 17° S 11:32:03 10° SE visible
09 Dec 3.1 11:13:52 10° SW 11:16:39 18° S 11:19:26 10° SE visible
10 Dec 2.9 11:01:19 11° SW 11:03:53 19° S 11:06:46 10° SE visible
11 Dec 2.8 10:49:31 16° SSW 10:51:07 19° S 10:54:03 10° SE visible
12 Dec 2.7 10:37:39 19° SSW 10:38:21 19° S 10:41:18 10° SE visible
13 Dec 2.8 10:25:45 19° S 10:25:45 19° S 10:28:31 10° SE visible
13 Dec 3.2 12:04:03 10° SW 12:05:56 13° SSW 12:07:49 10° SSE visible
14 Dec 3.1 10:13:49 17° SSE 10:13:49 17° SSE 10:15:40 10° SE visible
14 Dec 3.3 11:51:49 10° SW 11:53:07 11° SSW 11:54:25 10° S visible
15 Dec 3.4 10:01:52 14° SSE 10:01:52 14° SSE 10:02:47 10° SE visible
